This is the latest recevied weather packets stored in our database for station/object W7TRD. If no packets are shown the sender has not sent any weather packets the latest 10 day(s).
| Time | Temp. | Humidity | Pressure | Rain* | Wind** | Luminosity | Snow |
|---|---|---|---|---|---|---|---|
| 1777485983 | 15° C | 61% | 1024.7 hPa | 0 mm | - | 643 W/m² | - |
| 1777485680 | 14.44° C | 62% | 1025 hPa | 0 mm | - | 640 W/m² | - |
| 1777485375 | 14.44° C | 63% | 1024.8 hPa | 0 mm | - | 630 W/m² | - |
| 1777485071 | 13.89° C | 64% | 1025 hPa | 0 mm | - | 622 W/m² | - |
| 1777484769 | 15° C | 64% | 1025 hPa | 0 mm | - | 614 W/m² | - |
| 1777484464 | 14.44° C | 60% | 1025.1 hPa | 0 mm | - | 607 W/m² | - |
| 1777484162 | 15° C | 62% | 1025.2 hPa | 0 mm | - | 595 W/m² | - |
| 1777483857 | 14.44° C | 63% | 1025.1 hPa | 0 mm | - | 574 W/m² | - |
| 1777483554 | 13.33° C | 67% | 1025.1 hPa | 0 mm | - | 569 W/m² | - |
| 1777483249 | 13.89° C | 66% | 1025 hPa | 0 mm | - | 559 W/m² | - |
| 1777482945 | 12.78° C | 67% | 1025.1 hPa | 0 mm | - | 547 W/m² | - |
| 1777482642 | 13.89° C | 66% | 1025.2 hPa | 0 mm | - | 120 W/m² | - |
| 1777482339 | 12.78° C | 67% | 1025.3 hPa | 0 mm | - | 530 W/m² | - |
| 1777482036 | 12.22° C | 69% | 1025.3 hPa | 0 mm | - | 519 W/m² | - |
| 1777481734 | 12.78° C | 70% | 1025.2 hPa | 0 mm | - | 503 W/m² | - |
| 1777481431 | 13.33° C | 67% | 1025.2 hPa | 0 mm | - | 489 W/m² | - |
| 1777481127 | 12.78° C | 68% | 1025.4 hPa | 0 mm | - | 479 W/m² | - |
| 1777480824 | 12.78° C | 68% | 1025.4 hPa | 0 mm | - | 462 W/m² | - |
| 1777480521 | 12.78° C | 70% | 1025.2 hPa | 0 mm | - | 454 W/m² | - |
| 1777480217 | 11.67° C | 71% | 1025.5 hPa | 0 mm | - | 438 W/m² | - |
| 1777479914 | 12.22° C | 71% | 1025.6 hPa | 0 mm | - | 426 W/m² | - |
| 1777479610 | 11.67° C | 72% | 1025.7 hPa | 0 mm | - | 408 W/m² | - |
| 1777479309 | 11.11° C | 74% | 1025.7 hPa | 0 mm | - | 394 W/m² | - |
| 1777479004 | 11.67° C | 74% | 1025.6 hPa | 0 mm | - | 375 W/m² | - |
| 1777478701 | 11.67° C | 72% | 1025.8 hPa | 0 mm | - | 364 W/m² | - |
* Rain latest hour (hover to see other rain measurements)
** Current wind speed in m/s (hover to see current wind gust speed)